This is the latest recevied weather packets stored in our database for station/object EA1FBN. If no packets are shown the sender has not sent any weather packets the latest 10 day(s).
| Time | Temp. | Humidity | Pressure | Rain* | Wind** | Luminosity | Snow |
|---|---|---|---|---|---|---|---|
| 1777671927 | 15.56° C | 73% | 1018.4 hPa | 0 mm | - | - | - |
| 1777671027 | 15.56° C | 71% | 1018.4 hPa | 0 mm | - | - | - |
| 1777670427 | 15.56° C | 72% | 1018.5 hPa | 0 mm | - | - | - |
| 1777670127 | 15.56° C | 72% | 1018.4 hPa | 0 mm | - | - | - |
| 1777669527 | 15.56° C | 71% | 1018.4 hPa | 0 mm | - | - | - |
| 1777668927 | 15.56° C | 70% | 1018.3 hPa | 0 mm | - | - | - |
| 1777668627 | 15.56° C | 70% | 1018.3 hPa | 0 mm | - | - | - |
| 1777668027 | 16.11° C | 69% | 1018.4 hPa | 0 mm | - | - | - |
| 1777667427 | 16.11° C | 69% | 1018.2 hPa | 0 mm | - | - | - |
| 1777667127 | 16.11° C | 69% | 1018.2 hPa | 0 mm | - | - | - |
| 1777666827 | 16.11° C | 68% | 1018.1 hPa | 0 mm | - | - | - |
| 1777666227 | 16.67° C | 67% | 1018 hPa | 0 mm | - | - | - |
| 1777665627 | 17.22° C | 66% | 1018.1 hPa | 0 mm | - | - | - |
| 1777665327 | 17.22° C | 66% | 1018.1 hPa | 0 mm | - | - | - |
| 1777665027 | 17.22° C | 66% | 1018 hPa | 0 mm | - | - | - |
| 1777664427 | 17.78° C | 64% | 1017.8 hPa | 0 mm | - | - | - |
| 1777663227 | 17.78° C | 61% | 1017.7 hPa | 0 mm | - | - | - |
| 1777662927 | 18.33° C | 60% | 1017.8 hPa | 0 mm | - | - | - |
| 1777662627 | 18.33° C | 60% | 1017.8 hPa | 0 mm | - | - | - |
| 1777661727 | 18.89° C | 56% | 1017.8 hPa | 0 mm | - | - | - |
| 1777660227 | 20° C | 50% | 1017.6 hPa | 0 mm | - | - | - |
| 1777659927 | 20° C | 50% | 1017.6 hPa | 0 mm | - | - | - |
| 1777659627 | 20° C | 51% | 1017.6 hPa | 0 mm | - | - | - |
| 1777659327 | 20° C | 51% | 1017.6 hPa | 0 mm | - | - | - |
| 1777659027 | 20° C | 50% | 1017.6 hPa | 0 mm | - | - | - |
* Rain latest hour (hover to see other rain measurements)
** Current wind speed in m/s (hover to see current wind gust speed)